This is the latest recevied weather packets stored in our database for station/object IZ3MEZ-13. If no packets are shown the sender has not sent any weather packets the latest 10 day(s).
| Time | Temp. | Humidity | Pressure | Rain* | Wind** | Luminosity | Snow |
|---|---|---|---|---|---|---|---|
| 1778006719 | 13.89° C | 90% | 1014.8 hPa | 0 mm | - | 0 W/m² | - |
| 1778006125 | 13.89° C | 90% | 1014.7 hPa | 0 mm | - | 0 W/m² | - |
| 1778005516 | 13.89° C | 90% | 1014.6 hPa | 0 mm | - | 0 W/m² | - |
| 1778004320 | 13.89° C | 90% | 1014.5 hPa | 0 mm | - | 0 W/m² | - |
| 1778002522 | 14.44° C | 90% | 1014.6 hPa | 0 mm | - | 3 W/m² | - |
| 1778001918 | 14.44° C | 90% | 1014.4 hPa | 0 mm | - | 6 W/m² | - |
| 1778001317 | 14.44° C | 90% | 1014.4 hPa | 0 mm | - | 6 W/m² | - |
| 1778000716 | 14.44° C | 90% | 1014.4 hPa | 0 mm | - | 8 W/m² | - |
| 1777998924 | 14.44° C | 90% | 1014.6 hPa | 0 mm | - | 21 W/m² | - |
| 1777998318 | 14.44° C | 90% | 1014.5 hPa | 0 mm | - | 13 W/m² | - |
| 1777997719 | 14.44° C | 90% | 1014.6 hPa | 0 mm | - | 19 W/m² | - |
| 1777997130 | 14.44° C | 90% | 1014.6 hPa | 0 mm | - | 15 W/m² | - |
| 1777995318 | 15° C | 88% | 1014.7 hPa | 0 mm | - | 14 W/m² | - |
| 1777994723 | 15° C | 88% | 1014.7 hPa | 0 mm | - | 15 W/m² | - |
| 1777994123 | 15.56° C | 87% | 1014.6 hPa | 0 mm | - | 11 W/m² | - |
| 1777993520 | 16.11° C | 87% | 1014.6 hPa | 0 mm | - | 17 W/m² | - |
| 1777992919 | 16.11° C | 87% | 1014.7 hPa | 0 mm | - | 92 W/m² | - |
| 1777992317 | 16.11° C | 87% | 1014.8 hPa | 0 mm | - | 37 W/m² | - |
| 1777991720 | 15.56° C | 86% | 1014.7 hPa | 0 mm | - | 32 W/m² | - |
| 1777990819 | 15.56° C | 86% | 1014.9 hPa | 0 mm | - | 52 W/m² | - |
| 1777990220 | 15.56° C | 85% | 1014.9 hPa | 0 mm | - | 41 W/m² | - |
| 1777989031 | 15.56° C | 85% | 1015.1 hPa | 0 mm | - | 69 W/m² | - |
| 1777988421 | 15.56° C | 84% | 1015.1 hPa | 0 mm | - | 43 W/m² | - |
| 1777987822 | 16.11° C | 84% | 1015.3 hPa | 0 mm | - | 45 W/m² | - |
| 1777987217 | 16.11° C | 84% | 1015.2 hPa | 0 mm | - | 49 W/m² | - |
* Rain latest hour (hover to see other rain measurements)
** Current wind speed in m/s (hover to see current wind gust speed)